User: anonymous   Login
Location: Domont
(49.0278°N, 2.3264°E)
Time: 00:45:26
(UTC+00:00)
Language:

FENGYUN 3D - Orbit

View from above orbital plane
View from above orbital plane
View from above satellite
View from above satellite

Ground track
Ground track

The orbit data is extracted from the following two-line orbital elements,

1 43010U 17072A   22226.37471902  .00000037  00000-0  38753-4 0  9992
2 43010  98.8179 170.6951 0002928  88.9392 271.2122 14.19217448245987
Epoch (UTC): 14 August 2022 08:59:35
Eccentricity: 0.0002928
inclination: 98.8179°
perigee height: 826 km
apogee height: 830 km
right ascension of ascending node: 170.6951°
argument of perigee: 88.9392°
revolutions per day: 14.19217448
mean anomaly at epoch: 271.2122°
orbit number at epoch: 24598

The dashed part of the orbit path shows where the satellite is in the earth's shadow,  

DLR